When you browse on this site, cookies collect data to enhance your experience and personalize the content and advertising you see.
Visit our Privacy Policy to learn more. By continuing to use the site, you agree to this use of cookies and data.
  • In Latvia
  • List of Countries
  • For 7 days
  • Water Temperature
  • Weather Map
  • Weather Widgets
  • user-avatar
    Login

    Hourly Weather Leshno

    Today, 7 June, Sunday

    Time Temperature Precipitation Wind Pressure Humidity
    00:00 +13°C° 0 mm 1 mps 741 mmHg 93%
    01:00 +12°C° 0 mm 1 mps 741 mmHg 93%
    02:00 +12°C° 0 mm 1 mps 741 mmHg 94%
    03:00 +13°C° 0 mm 1 mps 742 mmHg 93%
    04:00 +13°C° 0 mm 1 mps 742 mmHg 92%
    05:00 +14°C° 0 mm 1 mps 742 mmHg 91%
    06:00 +16°C° 0 mm 2 mps 743 mmHg 84%
    07:00 +18°C° 0 mm 2 mps 743 mmHg 76%
    08:00 +20°C° 0 mm 2 mps 743 mmHg 69%
    09:00 +21°C° 0 mm 2 mps 744 mmHg 63%
    10:00 +24°C° 0 mm 2 mps 744 mmHg 58%
    11:00 +25°C° 0 mm 2 mps 744 mmHg 52%
    12:00 +26°C° 0 mm 2 mps 744 mmHg 50%
    13:00 +26°C° 0 mm 3 mps 744 mmHg 48%
    14:00 +27°C° 0 mm 3 mps 744 mmHg 46%
    15:00 +27°C° 0 mm 3 mps 743 mmHg 49%
    16:00 +27°C° 0 mm 3 mps 743 mmHg 51%
    17:00 +26°C° 0 mm 3 mps 743 mmHg 54%
    18:00 +25°C° 0.1 mm 3 mps 743 mmHg 61%
    19:00 +23°C° 0.1 mm 2 mps 743 mmHg 69%
    20:00 +20°C° 0.1 mm 2 mps 743 mmHg 77%
    21:00 +20°C° 0 mm 2 mps 743 mmHg 79%
    22:00 +19°C° 0 mm 2 mps 743 mmHg 82%
    23:00 +19°C° 0 mm 3 mps 742 mmHg 84%

    Tomorrow, 8 June, Monday

    Time Temperature Precipitation Wind Pressure Humidity
    00:00 +18°C° 0 mm 3 mps 742 mmHg 87%
    01:00 +18°C° 0 mm 2 mps 742 mmHg 90%
    02:00 +18°C° 0 mm 2 mps 742 mmHg 93%
    03:00 +18°C° 0.1 mm 3 mps 742 mmHg 92%
    04:00 +18°C° 0.1 mm 3 mps 742 mmHg 91%
    05:00 +18°C° 0.1 mm 3 mps 742 mmHg 90%
    06:00 +20°C° 0 mm 3 mps 742 mmHg 84%
    07:00 +22°C° 0 mm 3 mps 742 mmHg 78%
    08:00 +24°C° 0 mm 3 mps 742 mmHg 72%
    09:00 +25°C° 0 mm 3 mps 742 mmHg 65%
    10:00 +27°C° 0 mm 4 mps 742 mmHg 57%
    11:00 +28°C° 0 mm 4 mps 743 mmHg 50%
    12:00 +29°C° 0 mm 4 mps 742 mmHg 48%
    13:00 +29°C° 0 mm 4 mps 742 mmHg 46%
    14:00 +30°C° 0 mm 4 mps 742 mmHg 44%
    15:00 +29°C° 0 mm 4 mps 742 mmHg 46%
    16:00 +29°C° 0 mm 4 mps 742 mmHg 49%
    17:00 +29°C° 0 mm 4 mps 742 mmHg 51%
    18:00 +27°C° 0 mm 3 mps 742 mmHg 60%
    19:00 +25°C° 0 mm 3 mps 742 mmHg 69%
    20:00 +23°C° 0 mm 2 mps 742 mmHg 79%
    21:00 +21°C° 0 mm 2 mps 742 mmHg 83%
    22:00 +20°C° 0 mm 2 mps 742 mmHg 88%
    23:00 +19°C° 0 mm 2 mps 742 mmHg 93%

    Day after tomorrow, 9 June, Tuesday

    Time Temperature Precipitation Wind Pressure Humidity
    00:00 +19°C° 0 mm 2 mps 743 mmHg 94%
    01:00 +18°C° 0 mm 2 mps 743 mmHg 95%
    02:00 +18°C° 0 mm 2 mps 743 mmHg 97%
    03:00 +18°C° 0 mm 2 mps 743 mmHg 95%
    04:00 +18°C° 0 mm 2 mps 743 mmHg 94%
    05:00 +18°C° 0 mm 2 mps 743 mmHg 93%
    06:00 +20°C° 0 mm 2 mps 743 mmHg 85%
    07:00 +23°C° 0 mm 2 mps 744 mmHg 78%
    08:00 +25°C° 0 mm 2 mps 744 mmHg 70%
    09:00 +26°C° 0.1 mm 3 mps 744 mmHg 64%
    10:00 +28°C° 0.1 mm 3 mps 744 mmHg 58%
    11:00 +29°C° 0.1 mm 3 mps 744 mmHg 52%
    12:00 +29°C° 0 mm 3 mps 744 mmHg 49%
    13:00 +30°C° 0 mm 3 mps 744 mmHg 46%
    14:00 +30°C° 0 mm 3 mps 744 mmHg 43%
    15:00 +30°C° 0 mm 3 mps 744 mmHg 45%
    16:00 +30°C° 0 mm 2 mps 744 mmHg 47%
    17:00 +29°C° 0 mm 2 mps 744 mmHg 49%
    18:00 +27°C° 0 mm 2 mps 744 mmHg 57%
    19:00 +25°C° 0 mm 2 mps 744 mmHg 66%
    20:00 +23°C° 0 mm 1 mps 744 mmHg 75%
    21:00 +22°C° 0 mm 1 mps 744 mmHg 77%
    22:00 +22°C° 0 mm 1 mps 744 mmHg 79%
    23:00 +21°C° 0 mm 1 mps 744 mmHg 81%

    10 June, Wednesday

    Time Temperature Precipitation Wind Pressure Humidity
    00:00 +20°C° 0 mm 1 mps 744 mmHg 85%
    01:00 +20°C° 0 mm 1 mps 744 mmHg 88%
    02:00 +19°C° 0 mm 1 mps 744 mmHg 92%
    03:00 +20°C° 0 mm 1 mps 744 mmHg 92%
    04:00 +20°C° 0 mm 1 mps 744 mmHg 91%
    05:00 +20°C° 0 mm 1 mps 744 mmHg 91%
    06:00 +21°C° 0 mm 2 mps 744 mmHg 83%
    07:00 +24°C° 0 mm 2 mps 744 mmHg 75%
    08:00 +26°C° 0 mm 2 mps 744 mmHg 67%
    09:00 +27°C° 0 mm 2 mps 744 mmHg 62%
    10:00 +28°C° 0 mm 2 mps 744 mmHg 56%
    11:00 +30°C° 0 mm 3 mps 744 mmHg 50%
    12:00 +30°C° 0 mm 3 mps 744 mmHg 48%
    13:00 +31°C° 0 mm 3 mps 744 mmHg 46%
    14:00 +31°C° 0 mm 3 mps 743 mmHg 43%
    15:00 +31°C° 0 mm 3 mps 743 mmHg 46%
    16:00 +31°C° 0 mm 3 mps 743 mmHg 48%
    17:00 +30°C° 0 mm 2 mps 743 mmHg 50%
    18:00 +28°C° 0.1 mm 2 mps 743 mmHg 59%
    19:00 +26°C° 0.1 mm 2 mps 743 mmHg 68%
    20:00 +24°C° 0.1 mm 2 mps 743 mmHg 76%
    21:00 +23°C° 0 mm 2 mps 743 mmHg 80%
    22:00 +21°C° 0 mm 2 mps 743 mmHg 84%
    23:00 +21°C° 0 mm 1 mps 743 mmHg 87%

    11 June, Thursday

    Time Temperature Precipitation Wind Pressure Humidity
    00:00 +20°C° 0 mm 2 mps 743 mmHg 89%
    01:00 +20°C° 0 mm 2 mps 743 mmHg 91%
    02:00 +19°C° 0 mm 2 mps 743 mmHg 93%
    03:00 +20°C° 0 mm 2 mps 743 mmHg 92%
    04:00 +20°C° 0 mm 2 mps 743 mmHg 91%
    05:00 +20°C° 0 mm 2 mps 743 mmHg 91%
    06:00 +23°C° 0 mm 2 mps 743 mmHg 84%
    07:00 +25°C° 0 mm 2 mps 743 mmHg 77%
    08:00 +26°C° 0 mm 2 mps 744 mmHg 71%
    09:00 +28°C° 0 mm 3 mps 743 mmHg 64%
    10:00 +29°C° 0 mm 3 mps 743 mmHg 57%
    11:00 +30°C° 0 mm 3 mps 743 mmHg 50%
    12:00 +31°C° 0 mm 3 mps 743 mmHg 47%
    13:00 +31°C° 0 mm 3 mps 743 mmHg 45%
    14:00 +33°C° 0 mm 3 mps 743 mmHg 43%
    15:00 +33°C° 0 mm 3 mps 743 mmHg 44%
    16:00 +31°C° 0 mm 2 mps 743 mmHg 46%
    17:00 +31°C° 0 mm 2 mps 742 mmHg 48%
    18:00 +29°C° 0 mm 2 mps 742 mmHg 57%
    19:00 +27°C° 0 mm 2 mps 742 mmHg 66%
    20:00 +25°C° 0 mm 1 mps 742 mmHg 75%
    21:00 +24°C° 0 mm 1 mps 743 mmHg 79%
    22:00 +23°C° 0 mm 1 mps 743 mmHg 83%
    23:00 +22°C° 0 mm 1 mps 743 mmHg 88%

    12 June, Friday

    Time Temperature Precipitation Wind Pressure Humidity
    00:00 +21°C° 0.1 mm 1 mps 743 mmHg 90%
    01:00 +19°C° 0.1 mm 0 mps 742 mmHg 92%
    02:00 +18°C° 0.1 mm 0 mps 742 mmHg 94%
    03:00 +18°C° 0 mm 0 mps 742 mmHg 94%
    04:00 +20°C° 0 mm 1 mps 742 mmHg 94%
    05:00 +21°C° 0 mm 1 mps 742 mmHg 94%
    06:00 +22°C° 0.1 mm 1 mps 742 mmHg 88%
    07:00 +24°C° 0.1 mm 1 mps 743 mmHg 82%
    08:00 +26°C° 0.1 mm 1 mps 743 mmHg 76%
    09:00 +26°C° 0.9 mm 2 mps 743 mmHg 77%
    10:00 +26°C° 0.9 mm 2 mps 743 mmHg 79%
    11:00 +26°C° 0.9 mm 3 mps 743 mmHg 81%
    12:00 +26°C° 0.4 mm 3 mps 743 mmHg 78%
    13:00 +26°C° 0.4 mm 3 mps 743 mmHg 75%
    14:00 +26°C° 0.4 mm 3 mps 743 mmHg 72%
    15:00 +26°C° 0.4 mm 4 mps 743 mmHg 75%
    16:00 +25°C° 0.4 mm 4 mps 743 mmHg 77%
    17:00 +23°C° 0.4 mm 4 mps 742 mmHg 80%
    18:00 +22°C° 0.2 mm 4 mps 743 mmHg 83%
    19:00 +20°C° 0.2 mm 4 mps 743 mmHg 86%
    20:00 +19°C° 0.2 mm 4 mps 743 mmHg 89%
    21:00 +18°C° 0.4 mm 4 mps 743 mmHg 89%
    22:00 +18°C° 0.4 mm 4 mps 743 mmHg 89%
    23:00 +18°C° 0.4 mm 4 mps 743 mmHg 90%
    Show more